Nome, AK

8:25 PM AKDT on April 25, 2018 (GMT -0800)
Nome

Weather History for PAOM - September, 2011

Change the Weather History Date:

Friday, September 2, 2011

  Actual Average Record
Temperature  
Mean Temperature 49 °F 48 °F  
Max Temperature 57 °F 54 °F 67 °F (1991)
Min Temperature 41 °F 42 °F 25 °F (1983)
Degree Days  
Heating Degree Days 16 17  
Month to date heating degree days 33 34  
Since 1 July heating degree days 1049 894  
Cooling Degree Days 0 0  
Month to date cooling degree days 0 0  
Year to date cooling degree days 0 3  
Moisture  
Dew Point 41 °F    
Average Humidity 0    
Maximum Humidity 0    
Minimum Humidity 0    
Precipitation  
Precipitation 0.00 in 0.09 in 0.77 in (1999)
Month to date precipitation 0.00 0.18  
Year to date precipitation 13.34 10.63  
Snow  
Snow 0.00 in 0.00 in T in (1986)
Month to date snowfall 0.0 0.0  
Since 1 July snowfall 0.0 0.0  
Since 1 September snowfall 0.0 0.0  
Snow Depth 0.00 in    
Sea Level Pressure  
Sea Level Pressure 29.82 in    
Wind  
Wind Speed 6 mph (WNW)    
Max Wind Speed 16 mph    
Max Gust Speed 21 mph    
Visibility 10 miles    
Events      
T = Trace of Precipitation, MM = Missing Value Source: NWS Daily Summary

Daily Weather History Graph

Daily Weather History Graph

Search for Another Location

Airport or City:

Astronomy

Sep. 02, 2011 Rise Set
Actual Time 7:45 AM AKDT 10:15 PM AKDT
Civil Twilight 6:51 AM AKDT 11:08 PM AKDT
Nautical Twilight 5:36 AM AKDT 12:22 AM AKDT
Astronomical Twilight 3:34 AM AKDT 2:28 AM AKDT
Moon 4:29 PM AKDT (9/2) 9:58 PM AKDT (9/2)
Length of Visible Light 16h 16m
Length of Day
14h 29m
Waxing Crescent, 29% of the Moon is Illuminated
Sep 2
Waxing Crescent
Sep 4
First Quarter
Sep 12
Full
Sep 20
Last Quarter
Sep 27
New

Hourly Weather History & Observations

Time (AKDT) Temp. Windchill Dew Point Humidity Pressure Visibility Wind Dir Wind Speed Gust Speed Precip Events Conditions
12:53 AM 45.0 °F - 43.0 °F 93% 29.93 in 10.0 mi Calm Calm - N/A   Scattered Clouds
1:53 AM 45.0 °F 40.6 °F 43.0 °F 93% 29.92 in 10.0 mi NNW 8.1 mph - N/A   Clear
2:53 AM 44.1 °F 39.5 °F 41.0 °F 89% 29.92 in 10.0 mi NNW 8.1 mph - N/A   Scattered Clouds
3:53 AM 43.0 °F 39.5 °F 41.0 °F 93% 29.92 in 10.0 mi North 5.8 mph - N/A   Clear
4:53 AM 44.1 °F 40.1 °F 41.0 °F 89% 29.92 in 10.0 mi NNW 6.9 mph - N/A   Clear
5:53 AM 42.1 °F 40.2 °F 39.9 °F 92% 29.92 in 10.0 mi NW 3.5 mph - N/A   Scattered Clouds
6:53 AM 43.0 °F - 41.0 °F 93% 29.91 in 10.0 mi Calm Calm - N/A   Mostly Cloudy
7:53 AM 45.0 °F - 42.1 °F 90% 29.91 in 10.0 mi Calm Calm - N/A   Mostly Cloudy
8:53 AM 42.1 °F - 41.0 °F 96% 29.90 in 10.0 mi Calm Calm - N/A   Mostly Cloudy
9:53 AM 45.0 °F - 44.1 °F 97% 29.89 in 10.0 mi Calm Calm - N/A   Mostly Cloudy
10:53 AM 48.9 °F - 45.0 °F 86% 29.88 in 10.0 mi Calm Calm - N/A   Mostly Cloudy
11:53 AM 51.1 °F - 44.1 °F 77% 29.87 in 10.0 mi Calm Calm - N/A   Mostly Cloudy
12:53 PM 51.1 °F - 45.0 °F 80% 29.85 in 10.0 mi SW 5.8 mph - N/A   Scattered Clouds
1:53 PM 54.0 °F - 44.1 °F 69% 29.83 in 10.0 mi South 5.8 mph - N/A   Mostly Cloudy
2:53 PM 55.0 °F - 44.1 °F 67% 29.81 in 10.0 mi SW 10.4 mph - N/A   Mostly Cloudy
3:53 PM 55.9 °F - 39.0 °F 53% 29.79 in 10.0 mi WSW 13.8 mph - N/A   Scattered Clouds
4:53 PM 55.9 °F - 37.9 °F 51% 29.77 in 10.0 mi West 12.7 mph - N/A   Scattered Clouds
5:53 PM 55.9 °F - 36.0 °F 47% 29.74 in 10.0 mi NW 11.5 mph 19.6 mph N/A   Scattered Clouds
6:53 PM 54.0 °F - 36.0 °F 51% 29.72 in 10.0 mi WNW 11.5 mph - N/A   Scattered Clouds
7:53 PM 53.1 °F - 34.0 °F 48% 29.70 in 10.0 mi WNW 9.2 mph - N/A   Scattered Clouds
8:53 PM 50.0 °F - 39.0 °F 66% 29.68 in 10.0 mi West 8.1 mph - N/A   Scattered Clouds
9:53 PM 46.9 °F - 41.0 °F 80% 29.66 in 10.0 mi West 9.2 mph - N/A   Mostly Cloudy
10:53 PM 45.0 °F 41.2 °F 39.9 °F 82% 29.64 in 10.0 mi West 6.9 mph - N/A   Clear
11:53 PM 44.1 °F 40.8 °F 39.9 °F 85% 29.63 in 10.0 mi NNW 5.8 mph - N/A   Scattered Clouds